Starlink 32881

operational
NORAD ID: 62997 Int'l Des: 2025-031 Owner: SPXS Country: US Constellation: starlink
LEOCIRCULAR

关于 Starlink 32881

正在加载描述...

实时位置

正在加载3D地球...

即将过境

高度历史

Altitude vs Time

uPlot chart will show altitude changes over time

两行轨道根数

1 62997U 25031S 26035.18688233 .00037225 00000-0 13545-2 0 9998
2 62997 43.0020 332.3461 0000524 19.3638 340.7233 15.27603186 55974
Epoch: Feb 4, 2026 • Age: 12 hours

当前状态

高度 483.3 km
速度 7.63 km/s
星下点 28.47°N, 98.53°E
发射日期 Feb 11, 2025
运行时间 0.9 years
类型 internet

技术详情

分类 Payload
质量 730.00 kg
干质量 700.00 kg
总质量 730.00 kg
长度 0.30 m
直径 4.10 m
跨度 29.00 m
形状 Box + pan
制造商 SPXS
平台类型 Starlink V2M
阶段状态 In Orbit
所有者/国家 SPXS/US

大型星座

Loading constellations...